User: anonymous   Login
Location: Unspecified
(0.0000°N, 0.0000°E)
Time: 16:24:33
(UTC+00:00)
Language:

ZACube-1 - Orbit

View from above orbital plane
View from above orbital plane
View from above satellite
View from above satellite

Ground track
Ground track

The orbit data is extracted from the following two-line orbital elements,

1 39417U 13066B   19110.92866796 +.00000177 +00000-0 +28691-4 0  9990
2 39417 097.5662 127.7230 0057852 225.5726 134.0746 14.81086498292343
Epoch (UTC): 20 April 2019 22:17:16
Eccentricity: 0.0057852
inclination: 97.5662°
perigee height: 585 km
apogee height: 666 km
right ascension of ascending node: 127.7230°
argument of perigee: 225.5726°
revolutions per day: 14.81086498
mean anomaly at epoch: 134.0746°
orbit number at epoch: 29234

The dashed part of the orbit path shows where the satellite is in the earth's shadow,  

DLR